Lyndonville, VT

4:46 AM EST on December 18, 2017 (GMT -0500)
Lyndonville

Weather History for KCDA - January, 2013

Change the Weather History Date:

Sunday, January 6, 2013

  Actual Average (K1V4) Record (K1V4)
Temperature  
Mean Temperature 16 °F -  
Max Temperature 27 °F 25 °F 61 °F (2007)
Min Temperature 6 °F 9 °F -25 °F (1996)
Degree Days  
Heating Degree Days 49    
Moisture  
Dew Point 14 °F    
Average Humidity 84    
Maximum Humidity 91    
Minimum Humidity 77    
Precipitation  
Precipitation 0.00 in - - ()
Sea Level Pressure  
Sea Level Pressure 29.94 in    
Wind  
Wind Speed 1 mph (South)    
Max Wind Speed 8 mph    
Max Gust Speed -    
Visibility 5 miles    
Events Snow    
Averages and records for this station are not official NWS values.
T = Trace of Precipitation, MM = Missing Value Source: NWS Daily Summary

Daily Weather History Graph

Daily Weather History Graph

Search for Another Location

Airport or City:

Trip Planner

Search our weather history database for the weather conditions in past years. The results will help you decide how hot, cold, wet, or windy it might be!

Date:

Astronomy

Jan. 06, 2013 Rise Set
Actual Time 7:24 AM EST 4:23 PM EST
Civil Twilight 6:51 AM EST 4:56 PM EST
Nautical Twilight 6:14 AM EST 5:33 PM EST
Astronomical Twilight 5:39 AM EST 6:08 PM EST
Moon 1:29 AM EST (1/6) 11:53 AM EST (1/6)
Length of Visible Light 10h 05m
Length of Day
8h 59m
Waning Crescent, 33% of the Moon is Illuminated
Jan 6
Waning Crescent
Jan 11
New
Jan 18
First Quarter
Jan 26
Full
Feb 3
Last Quarter

Hourly Weather History & Observations

Time (EST) Temp. Windchill Dew Point Humidity Pressure Visibility Wind Dir Wind Speed Gust Speed Precip Events Conditions
12:15 AM 6.8 °F - 2.8 °F 84% 30.15 in 10.0 mi Calm Calm - N/A   Clear
12:35 AM 6.1 °F - 1.9 °F 83% 30.15 in 10.0 mi Calm Calm - N/A   Scattered Clouds
12:55 AM 6.8 °F - 2.3 °F 82% 30.15 in 10.0 mi Calm Calm - N/A   Overcast
1:15 AM 7.9 °F - 3.2 °F 81% 30.13 in 10.0 mi Calm Calm - N/A   Overcast
1:35 AM 6.3 °F -2.6 °F 1.9 °F 82% 30.11 in 10.0 mi SW 4.6 mph - N/A   Overcast
1:55 AM 6.4 °F -0.5 °F 1.6 °F 80% 30.12 in 10.0 mi SW 3.5 mph - N/A   Overcast
2:15 AM 6.8 °F -2.0 °F 2.3 °F 82% 30.11 in 10.0 mi SW 4.6 mph - N/A   Overcast
2:35 AM 7.7 °F - 3.2 °F 82% 30.11 in 10.0 mi Calm Calm - N/A   Mostly Cloudy
2:55 AM 8.6 °F - 3.9 °F 81% 30.08 in 10.0 mi Calm Calm - N/A   Mostly Cloudy
3:15 AM 7.3 °F - 2.7 °F 81% 30.08 in 10.0 mi Calm Calm - N/A   Mostly Cloudy
3:35 AM 6.1 °F - 1.9 °F 83% 30.06 in 10.0 mi Calm Calm - N/A   Scattered Clouds
3:55 AM 8.2 °F - 3.7 °F 82% 30.05 in 10.0 mi Calm Calm - N/A   Mostly Cloudy
4:15 AM 7.7 °F - 3.2 °F 82% 30.05 in 10.0 mi Calm Calm - N/A   Overcast
4:35 AM 8.2 °F - 3.6 °F 81% 30.03 in 10.0 mi Calm Calm - N/A   Overcast
5:15 AM 10.2 °F - 5.0 °F 79% 30.03 in 10.0 mi Calm Calm - N/A   Overcast
5:35 AM 9.7 °F 3.2 °F 4.6 °F 80% 30.00 in 7.0 mi SW 3.5 mph - N/A Snow Light Snow
5:55 AM 9.5 °F - 5.0 °F 82% 30.00 in 3.0 mi Calm Calm - N/A Snow Light Snow
6:35 AM 10.6 °F - 5.7 °F 81% 29.98 in 3.0 mi Calm Calm - N/A Snow Light Snow
6:55 AM 10.0 °F - 5.9 °F 83% 29.98 in 2.5 mi Calm Calm - N/A Snow Light Snow
7:35 AM 10.0 °F - 5.7 °F 83% 29.98 in 2.0 mi Calm Calm - N/A Snow Light Snow
7:55 AM 10.9 °F 4.7 °F 6.4 °F 82% 29.97 in 1.5 mi SW 3.5 mph - N/A Snow Light Snow
8:15 AM 10.9 °F - 6.4 °F 82% 29.97 in 1.5 mi Calm Calm - N/A Snow Light Snow
8:35 AM 11.5 °F - 7.0 °F 82% 29.96 in 2.0 mi Calm Calm - N/A Snow Light Snow
8:55 AM 12.7 °F - 7.7 °F 80% 29.96 in 1.2 mi Calm Calm - N/A Snow Light Snow
9:15 AM 12.7 °F - 7.7 °F 80% 29.96 in 1.8 mi Calm Calm - N/A Snow Light Snow
9:35 AM 13.8 °F - 8.6 °F 80% 29.96 in 2.5 mi Calm Calm - N/A Snow Light Snow
9:55 AM 14.7 °F - 9.3 °F 79% 29.96 in 2.5 mi Calm Calm - N/A Snow Light Snow
10:15 AM 16.7 °F - 10.8 °F 77% 29.95 in 2.5 mi Calm Calm - N/A Snow Light Snow
10:35 AM 17.8 °F - 11.7 °F 77% 29.94 in 4.0 mi Calm Calm - N/A Snow Light Snow
10:55 AM 19.4 °F - 13.3 °F 77% 29.93 in 3.0 mi Calm Calm - N/A Snow Light Snow
11:15 AM 20.7 °F 15.8 °F 15.3 °F 80% 29.91 in 5.0 mi South 3.5 mph - N/A Snow Light Snow
11:35 AM 21.7 °F - 16.2 °F 79% 29.90 in 10.0 mi Calm Calm - N/A   Overcast
11:55 AM 22.8 °F 16.7 °F 16.9 °F 78% 29.90 in 10.0 mi SSE 4.6 mph - N/A   Overcast
12:15 PM 23.0 °F 13.9 °F 17.6 °F 80% 29.89 in 7.0 mi SSE 8.1 mph - N/A   Overcast
12:35 PM 23.2 °F 16.0 °F 18.3 °F 82% 29.89 in 5.0 mi SSE 5.8 mph - N/A   Haze
12:55 PM 23.5 °F 17.6 °F 18.9 °F 82% 29.88 in 3.0 mi South 4.6 mph - N/A Snow Light Snow
1:15 PM 23.9 °F 16.8 °F 19.4 °F 83% 29.87 in 2.0 mi SSE 5.8 mph - N/A Snow Light Snow
1:35 PM 23.9 °F 19.5 °F 19.4 °F 83% 29.86 in 3.0 mi South 3.5 mph - N/A Snow Light Snow
1:55 PM 24.8 °F 19.1 °F 20.3 °F 83% 29.86 in 5.0 mi South 4.6 mph - N/A Snow Light Snow
2:15 PM 24.8 °F 20.5 °F 20.3 °F 83% 29.86 in 4.0 mi SE 3.5 mph - N/A Snow Light Snow
2:35 PM 25.2 °F - 20.8 °F 84% 29.86 in 3.0 mi Calm Calm - N/A Snow Light Snow
2:55 PM 25.3 °F 21.1 °F 21.0 °F 84% 29.86 in 3.0 mi SSE 3.5 mph - N/A Snow Light Snow
3:15 PM 25.5 °F 21.3 °F 21.4 °F 84% 29.86 in 2.5 mi SSE 3.5 mph - N/A Snow Light Snow
3:35 PM 25.7 °F 21.5 °F 21.9 °F 86% 29.86 in 1.8 mi SSE 3.5 mph - N/A Snow Light Snow
3:55 PM 25.9 °F - 22.1 °F 86% 29.85 in 7.0 mi Calm Calm - N/A   Overcast
4:15 PM 26.1 °F 21.9 °F 22.1 °F 85% 29.85 in 1.8 mi South 3.5 mph - N/A Snow Light Snow
4:35 PM 25.7 °F - 22.3 °F 87% 29.86 in 2.5 mi Calm Calm - N/A   Overcast
4:55 PM 24.8 °F - 21.9 °F 89% 29.86 in 2.5 mi Calm Calm - N/A Snow Light Snow
5:15 PM 25.2 °F - 22.1 °F 88% 29.86 in 3.0 mi Calm Calm - N/A Snow Light Snow
5:35 PM 24.8 °F - 22.1 °F 89% 29.86 in 2.0 mi Calm Calm - N/A Snow Light Snow
5:55 PM 24.8 °F - 21.9 °F 89% 29.87 in 3.0 mi Calm Calm - N/A Snow Light Snow
6:15 PM 24.8 °F - 22.1 °F 89% 29.87 in 2.5 mi Calm Calm - N/A Snow Light Snow
6:35 PM 24.8 °F - 22.1 °F 89% 29.87 in 3.0 mi Calm Calm - N/A Snow Light Snow
6:55 PM 25.2 °F - 22.1 °F 88% 29.87 in 2.0 mi Calm Calm - N/A Snow Light Snow
7:15 PM 25.2 °F - 22.5 °F 89% 29.88 in 2.5 mi Calm Calm - N/A Snow Light Snow
7:35 PM 25.5 °F - 22.8 °F 89% 29.88 in 4.0 mi Calm Calm - N/A Snow Light Snow
7:55 PM 25.5 °F - 22.8 °F 89% 29.88 in 3.0 mi Calm Calm - N/A Snow Light Snow
8:15 PM 25.7 °F - 23.0 °F 89% 29.88 in 3.0 mi Calm Calm - N/A Snow Light Snow
8:35 PM 26.1 °F 21.9 °F 23.4 °F 90% 29.87 in 2.5 mi SE 3.5 mph - N/A Snow Light Snow
8:55 PM 26.1 °F 21.9 °F 23.5 °F 90% 29.87 in 2.0 mi SE 3.5 mph - N/A Snow Light Snow
9:15 PM 26.2 °F 22.1 °F 23.9 °F 91% 29.87 in 2.5 mi SE 3.5 mph - N/A Snow Light Snow
9:35 PM 25.9 °F - 23.5 °F 91% 29.87 in 2.5 mi Calm Calm - N/A Snow Light Snow
9:55 PM 25.2 °F - 22.6 °F 90% 29.88 in 4.0 mi Calm Calm - N/A   Overcast
10:15 PM 26.1 °F - 23.5 °F 90% 29.88 in 4.0 mi Calm Calm - N/A   Overcast
10:55 PM 26.2 °F - 23.7 °F 90% 29.89 in 3.0 mi Calm Calm - N/A Snow Light Snow
11:35 PM 26.6 °F - 24.3 °F 91% 29.90 in 3.0 mi Calm Calm - N/A Snow Light Snow
11:55 PM 27.1 °F - 24.8 °F 91% 29.90 in 3.0 mi Calm Calm - N/A Snow Light Snow